timestamp,surface_pressure_avg,surface_temp_avg,battery_voltage,lat,long
2019-06-20 00:00:00+00:00,344.3013,8.5,13.13,47.84626,-54.09684
2019-06-20 00:10:00+00:00,350.8563,8.4,13.05,47.84626,-54.09684
2019-06-20 00:20:00+00:00,354.3796,8.4,13.05,47.84626,-54.09684
2019-06-20 00:30:00+00:00,353.7112,8.5,13.05,47.84626,-54.09684
2019-06-20 00:40:00+00:00,357.2546,8.6,13.05,47.84626,-54.09684
2019-06-20 00:50:00+00:00,361.9979,8.5,13.05,47.84626,-54.09684
2019-06-20 01:00:00+00:00,361.053,8.57,12.97,47.84626,-54.09684
2019-06-20 01:10:00+00:00,361.0329,8.71,12.89,47.84626,-54.09684
2019-06-20 01:20:00+00:00,364.1062,8.77,12.97,47.84626,-54.09684
2019-06-20 01:30:00+00:00,362.7929,8.71,12.97,47.84626,-54.09684
2019-06-20 01:40:00+00:00,359.2428,8.8,12.97,47.84626,-54.09684
2019-06-20 01:50:00+00:00,361.7712,8.56,12.97,47.84626,-54.09684
2019-06-20 02:00:00+00:00,363.918,8.2,12.89,47.84626,-54.09684
2019-06-20 02:10:00+00:00,358.278,8.39,12.81,47.84626,-54.09684
2019-06-20 02:20:00+00:00,354.5964,8.5,12.89,47.84626,-54.09684
2019-06-20 02:30:00+00:00,354.7446,8.4,12.89,47.84626,-54.09684
2019-06-20 02:40:00+00:00,354.0646,8.3,12.97,47.84626,-54.09684
2019-06-20 02:50:00+00:00,348.8996,8.46,12.97,47.84626,-54.09684
2019-06-20 03:00:00+00:00,343.368,8.74,12.89,47.84626,-54.09684
2019-06-20 03:10:00+00:00,339.3329,8.53,12.81,47.84626,-54.09684
2019-06-20 03:20:00+00:00,332.5197,8.3,12.89,47.84626,-54.09684
2019-06-20 03:30:00+00:00,323.723,8.24,12.89,47.84626,-54.09684
2019-06-20 03:40:00+00:00,316.1213,8.2,12.89,47.84626,-54.09684
2019-06-20 03:50:00+00:00,311.033,8.18,12.89,47.84626,-54.09684
2019-06-20 04:00:00+00:00,302.9396,8.2,12.81,47.84626,-54.09684
2019-06-20 04:10:00+00:00,293.6063,8.2,12.81,47.84626,-54.09684
2019-06-20 04:20:00+00:00,285.2464,8.2,12.89,47.84626,-54.09684
2019-06-20 04:30:00+00:00,278.2314,8.2,12.89,47.84626,-54.09684
2019-06-20 04:40:00+00:00,268.6747,8.2,12.89,47.84626,-54.09684
2019-06-20 04:50:00+00:00,257.2798,8.2,12.89,47.84626,-54.09684
2019-06-20 05:00:00+00:00,249.5864,8.2,12.81,47.84626,-54.09684
2019-06-20 05:10:00+00:00,243.3964,8.26,12.73,47.84626,-54.09684
2019-06-20 05:20:00+00:00,235.0715,8.3,12.81,47.84626,-54.09684
2019-06-20 05:30:00+00:00,224.2847,8.32,12.89,47.84626,-54.09684
2019-06-20 05:40:00+00:00,215.2548,8.38,12.89,47.84626,-54.09684
2019-06-20 05:50:00+00:00,208.8015,8.35,12.89,47.84626,-54.09684
2019-06-20 06:00:00+00:00,202.7014,8.37,12.81,47.84626,-54.09684
2019-06-20 06:10:00+00:00,197.0798,8.4,12.73,47.84626,-54.09684
2019-06-20 06:20:00+00:00,193.3048,8.49,12.81,47.84626,-54.09684
2019-06-20 06:30:00+00:00,188.3232,8.5,12.81,47.84626,-54.09684
2019-06-20 06:40:00+00:00,183.8699,8.5,12.81,47.84626,-54.09684
2019-06-20 06:50:00+00:00,184.3482,8.5,12.89,47.84626,-54.09684
2019-06-20 07:00:00+00:00,185.5114,8.5,12.81,47.84626,-54.09684
2019-06-20 07:10:00+00:00,184.3081,8.5,12.73,47.84626,-54.09684
2019-06-20 07:20:00+00:00,186.2848,8.5,12.81,47.84626,-54.09684
2019-06-20 07:30:00+00:00,189.6881,8.5,12.81,47.84626,-54.09684
2019-06-20 07:40:00+00:00,189.5848,8.5,12.81,47.84626,-54.09684
2019-06-20 07:50:00+00:00,190.8698,8.5,12.81,47.84626,-54.09684
2019-06-20 08:00:00+00:00,194.5348,8.5,12.73,47.84626,-54.09684
2019-06-20 08:10:00+00:00,199.3465,8.49,12.73,47.84626,-54.09684
2019-06-20 08:20:00+00:00,204.0132,8.49,12.81,47.84626,-54.09684
2019-06-20 08:30:00+00:00,209.9231,8.49,12.81,47.84626,-54.09684
2019-06-20 08:40:00+00:00,212.9865,8.5,12.89,47.84626,-54.09684
2019-06-20 08:50:00+00:00,213.9714,8.49,12.97,47.84626,-54.09684
2019-06-20 09:00:00+00:00,217.7964,8.5,12.97,47.84626,-54.09684
2019-06-20 09:10:00+00:00,222.1864,8.5,12.89,47.84626,-54.09684
2019-06-20 09:20:00+00:00,225.5464,8.5,13.05,47.84626,-54.09684
2019-06-20 09:30:00+00:00,227.0164,8.5,13.21,47.84626,-54.09684
2019-06-20 09:40:00+00:00,227.1281,8.5,13.37,47.84626,-54.09684
2019-06-20 09:50:00+00:00,228.5497,8.5,13.6,47.84626,-54.09684
2019-06-20 10:00:00+00:00,233.4014,8.5,13.68,47.84626,-54.09684
2019-06-20 10:10:00+00:00,238.9448,8.52,13.76,47.84626,-54.09684
2019-06-20 10:20:00+00:00,241.8615,8.57,14.0,47.84626,-54.09684
2019-06-20 10:30:00+00:00,246.4198,8.59,14.24,47.84626,-54.09684
2019-06-20 10:40:00+00:00,251.7031,8.6,14.32,47.84626,-54.09684
2019-06-20 10:50:00+00:00,257.5614,8.6,14.48,47.84626,-54.09684
2019-06-20 11:00:00+00:00,262.1447,8.6,14.48,47.84626,-54.09684
2019-06-20 11:10:00+00:00,268.2681,8.6,14.48,47.84626,-54.09684
2019-06-20 11:20:00+00:00,271.2431,8.63,14.64,47.84626,-54.09684
2019-06-20 11:30:00+00:00,277.5264,8.69,14.64,47.84626,-54.09684
2019-06-20 11:40:00+00:00,282.2214,8.7,14.64,47.84626,-54.09684
2019-06-20 11:50:00+00:00,286.2997,8.7,14.64,47.84626,-54.09684
2019-06-20 12:00:00+00:00,290.0014,8.7,14.56,47.84626,-54.09684
2019-06-20 12:10:00+00:00,300.1396,8.7,14.56,47.84626,-54.09684
2019-06-20 12:20:00+00:00,307.6996,8.7,14.64,47.84626,-54.09684
2019-06-20 12:30:00+00:00,310.5513,8.7,14.64,47.84626,-54.09684
2019-06-20 12:40:00+00:00,314.4564,8.77,14.64,47.84626,-54.09684
2019-06-20 12:50:00+00:00,317.9131,8.8,14.64,47.84626,-54.09684
2019-06-20 13:00:00+00:00,317.633,8.83,14.56,47.84626,-54.09684
2019-06-20 13:10:00+00:00,319.5063,8.9,14.56,47.84626,-54.09684
2019-06-20 13:20:00+00:00,324.053,8.9,14.64,47.84626,-54.09684
2019-06-20 13:30:00+00:00,324.9563,8.9,14.56,47.84626,-54.09684
2019-06-20 13:40:00+00:00,322.8313,8.91,14.56,47.84626,-54.09684
2019-06-20 13:50:00+00:00,323.1296,8.9,14.56,47.84626,-54.09684
2019-06-20 14:00:00+00:00,324.9764,8.71,14.48,47.84626,-54.09684
2019-06-20 14:10:00+00:00,324.3997,8.79,14.48,47.84626,-54.09684
2019-06-20 14:20:00+00:00,324.0496,8.8,14.56,47.84626,-54.09684
2019-06-20 14:30:00+00:00,322.1414,8.6,14.56,47.84626,-54.09684
2019-06-20 14:40:00+00:00,318.868,8.61,14.56,47.84626,-54.09684
2019-06-20 14:50:00+00:00,314.473,8.6,14.48,47.84626,-54.09684
2019-06-20 15:00:00+00:00,313.1579,8.5,14.48,47.84626,-54.09684
2019-06-20 15:10:00+00:00,311.8663,8.44,14.4,47.84626,-54.09684
2019-06-20 15:20:00+00:00,308.6296,8.49,14.48,47.84626,-54.09684
2019-06-20 15:30:00+00:00,307.0348,8.5,14.48,47.84626,-54.09684
2019-06-20 15:40:00+00:00,305.5947,8.5,14.48,47.84626,-54.09684
2019-06-20 15:50:00+00:00,298.4047,8.6,14.4,47.84626,-54.09684
2019-06-20 16:00:00+00:00,291.3514,8.64,14.32,47.84626,-54.09684
2019-06-20 16:10:00+00:00,287.5414,8.68,14.32,47.84626,-54.09684
2019-06-20 16:20:00+00:00,281.808,8.64,14.4,47.84626,-54.09684
2019-06-20 16:30:00+00:00,274.793,8.66,14.32,47.84626,-54.09684
2019-06-20 16:40:00+00:00,269.2814,8.69,14.24,47.84626,-54.09684
2019-06-20 16:50:00+00:00,261.5347,8.7,14.16,47.84626,-54.09684
2019-06-20 17:00:00+00:00,250.8531,8.76,14.16,47.84626,-54.09684
2019-06-20 17:10:00+00:00,242.3714,8.8,14.0,47.84626,-54.09684
2019-06-20 17:20:00+00:00,236.7014,8.8,14.24,47.84626,-54.09684
2019-06-20 17:30:00+00:00,229.4948,8.8,14.24,47.84626,-54.09684
2019-06-20 17:40:00+00:00,220.7331,8.8,14.32,47.84626,-54.09684
2019-06-20 17:50:00+00:00,214.0515,8.85,14.24,47.84626,-54.09684
2019-06-20 18:00:00+00:00,210.0981,8.87,14.16,47.84626,-54.09684
2019-06-20 18:10:00+00:00,201.8498,8.89,14.08,47.84626,-54.09684
2019-06-20 18:20:00+00:00,194.8514,8.9,14.08,47.84626,-54.09684
2019-06-20 18:30:00+00:00,194.0831,8.9,14.0,47.84626,-54.09684
2019-06-20 18:40:00+00:00,193.4198,8.9,14.0,47.84626,-54.09684
2019-06-20 18:50:00+00:00,189.4148,8.9,14.0,47.84626,-54.09684
2019-06-20 19:00:00+00:00,188.4098,8.9,14.0,47.84626,-54.09684
2019-06-20 19:10:00+00:00,188.3448,8.9,13.92,47.84626,-54.09684
2019-06-20 19:20:00+00:00,188.2698,8.9,14.08,47.84626,-54.09684
2019-06-20 19:30:00+00:00,190.5781,8.92,14.08,47.84626,-54.09684
2019-06-20 19:40:00+00:00,195.8265,9.0,14.08,47.84626,-54.09684
2019-06-20 19:50:00+00:00,197.9165,9.04,14.08,47.84626,-54.09684
2019-06-20 20:00:00+00:00,199.6514,9.1,14.0,47.84626,-54.09684
2019-06-20 20:10:00+00:00,201.7648,9.18,13.92,47.84626,-54.09684
2019-06-20 20:20:00+00:00,204.2415,9.2,13.92,47.84626,-54.09684
2019-06-20 20:30:00+00:00,207.2414,9.25,13.92,47.84626,-54.09684
2019-06-20 20:40:00+00:00,211.1564,9.3,13.92,47.84626,-54.09684
2019-06-20 20:50:00+00:00,216.9964,9.4,13.92,47.84626,-54.09684
2019-06-20 21:00:00+00:00,221.0614,9.5,13.84,47.84626,-54.09684
2019-06-20 21:10:00+00:00,221.3048,9.6,13.68,47.84626,-54.09684
2019-06-20 21:20:00+00:00,225.3131,9.73,13.76,47.84626,-54.09684
2019-06-20 21:30:00+00:00,232.8547,9.8,13.68,47.84626,-54.09684
2019-06-20 21:40:00+00:00,236.0531,9.9,13.76,47.84626,-54.09684
2019-06-20 21:50:00+00:00,237.2831,9.99,13.76,47.84626,-54.09684
2019-06-20 22:00:00+00:00,242.5081,10.0,13.68,47.84626,-54.09684
2019-06-20 22:10:00+00:00,249.1548,9.8,13.6,47.84626,-54.09684
2019-06-20 22:20:00+00:00,251.5165,9.7,13.6,47.84626,-54.09684
2019-06-20 22:30:00+00:00,252.7781,9.8,13.6,47.84626,-54.09684
2019-06-20 22:40:00+00:00,257.3881,9.7,13.6,47.84626,-54.09684
2019-06-20 22:50:00+00:00,262.7831,9.7,13.6,47.84626,-54.09684
2019-06-20 23:00:00+00:00,267.6447,9.8,13.44,47.84626,-54.09684
2019-06-20 23:10:00+00:00,272.1814,9.8,13.29,47.84626,-54.09684
2019-06-20 23:20:00+00:00,278.9714,9.81,13.29,47.84626,-54.09684
2019-06-20 23:30:00+00:00,288.0731,9.8,13.29,47.84626,-54.09684
2019-06-20 23:40:00+00:00,296.4863,9.7,13.29,47.84626,-54.09684
2019-06-20 23:50:00+00:00,298.8364,9.79,13.21,47.84626,-54.09684
